Tracking 18033 objects as of 23-March-2017
HD Live streaming from Space Station
objects crossing your sky now

USA 8

Track USA 8 now!
USA 8 is classified as:


NORAD ID: 15543
Int'l Code: 1985-010B
Perigee: 35,347.1 km
Apogee: 36,506.1 km
Inclination: 17.6 °
Period: 1,442.9 minutes
Semi major axis: 42297 km
RCS: Unknown
Launch date: January 24, 1985
Source: United States (US)
Launch site: AIR FORCE EASTERN TEST RANGE (AFETR)
Your satellite tracking list
Your tracking list is empty





NASA's NSSDC Master Catalog

Two Line Element Set (TLE):
1 15543U 85010B   17046.33685403 0.00000000  00000-0  00000-0 0    05
2 15543  17.6312 350.2916 0137003 313.6790  45.2709  0.99799708    04
Source of the keplerian elements: McCants